RYR124 LEPA-EDJA

Flight info

Callsign RYR124
Flight time 1h 34m
Altitude 36000
Route ISTER5B ISTER DCT NIVDA DCT OMEDA DCT RAPUR/N0397F200 DCT TORTU DCT ERTEV DCT TAGIP DCT TISAX DCT UNIMI L12 MOGTI P66 KPT KPT1D
Aircraft B738/M-SDE2E3FGHIRWXY/LB1

Departure

Time 2026-05-07 18:18
Airport Palma de Mallorca Airport (LEPA)

Arrival

Time 2026-05-07 19:53
Airport Memmingen Allgau Airport (EDJA)
Time Latitude Longitude Altitude Speed Heading
2026-05-07 17:40 39.54756 2.73628 36 ft 0 kts 58°
2026-05-07 18:03 39.54749 2.73613 35 ft 3 kts 58°
2026-05-07 18:03 39.54740 2.73595 36 ft 3 kts 62°
2026-05-07 18:04 39.54734 2.73573 36 ft 3 kts 101°
2026-05-07 18:04 39.54742 2.73554 36 ft 3 kts 143°
2026-05-07 18:04 39.54754 2.73544 37 ft 1 kts 149°
2026-05-07 18:04 39.54757 2.73541 37 ft 0 kts 149°
2026-05-07 18:08 39.54755 2.73543 37 ft 2 kts 149°
2026-05-07 18:08 39.54730 2.73562 36 ft 7 kts 149°
2026-05-07 18:08 39.54682 2.73600 37 ft 9 kts 149°
2026-05-07 18:09 39.54627 2.73625 37 ft 7 kts 166°
2026-05-07 18:09 39.54608 2.73632 37 ft 2 kts 163°
2026-05-07 18:09 39.54604 2.73633 37 ft 0 kts 163°
2026-05-07 18:10 39.54582 2.73650 37 ft 9 kts 149°
2026-05-07 18:10 39.54535 2.73685 37 ft 1 kts 149°
2026-05-07 18:12 39.54512 2.73703 36 ft 10 kts 149°
2026-05-07 18:12 39.54444 2.73757 37 ft 12 kts 143°
2026-05-07 18:13 39.54441 2.73833 37 ft 0 kts 60°
2026-05-07 18:18 39.54555 2.74076 37 ft 74 kts 58°
2026-05-07 18:18 39.54970 2.74950 45 ft 150 kts 58°
2026-05-07 18:18 39.55566 2.76213 633 ft 173 kts 58°
2026-05-07 18:19 39.56218 2.77588 1576 ft 179 kts 59°
2026-05-07 18:19 39.56840 2.78985 2620 ft 183 kts 60°
2026-05-07 18:19 39.57514 2.80490 3112 ft 204 kts 60°
2026-05-07 18:19 39.58283 2.82176 3437 ft 227 kts 60°
2026-05-07 18:20 39.59135 2.84026 3814 ft 254 kts 60°
2026-05-07 18:20 39.60050 2.86013 4705 ft 257 kts 59°
2026-05-07 18:20 39.60974 2.88021 5661 ft 261 kts 59°
2026-05-07 18:20 39.61911 2.90073 6603 ft 263 kts 60°
2026-05-07 18:21 39.62834 2.92121 7548 ft 265 kts 60°
2026-05-07 18:21 39.63768 2.94221 8329 ft 274 kts 61°
2026-05-07 18:21 39.64730 2.96378 9222 ft 277 kts 62°
2026-05-07 18:21 39.65703 2.98557 10123 ft 279 kts 61°
2026-05-07 18:22 39.66703 3.00798 10588 ft 299 kts 62°
2026-05-07 18:22 39.67415 3.02392 10709 ft 316 kts 61°
2026-05-07 18:22 39.68964 3.05868 11018 ft 347 kts 62°
2026-05-07 18:22 39.70198 3.08638 11578 ft 357 kts 62°
2026-05-07 18:23 39.71420 3.11397 12357 ft 360 kts 62°
2026-05-07 18:23 39.72673 3.14293 13065 ft 365 kts 63°
2026-05-07 18:23 39.73891 3.17195 13720 ft 366 kts 64°
2026-05-07 18:23 39.75081 3.20095 13923 ft 371 kts 64°
2026-05-07 18:24 39.76288 3.23094 13929 ft 375 kts 64°
2026-05-07 18:24 39.77417 3.26139 13935 ft 373 kts 71°
2026-05-07 18:24 39.77914 3.29418 13959 ft 369 kts 85°
2026-05-07 18:24 39.78190 3.32748 13943 ft 370 kts 85°
2026-05-07 18:25 39.78465 3.36080 13939 ft 371 kts 86°
2026-05-07 18:25 39.78748 3.39415 13961 ft 373 kts 84°
2026-05-07 18:25 39.79069 3.42799 14418 ft 379 kts 84°
2026-05-07 18:25 39.79401 3.46193 15238 ft 378 kts 84°
2026-05-07 18:26 39.79732 3.49598 15933 ft 381 kts 85°
2026-05-07 18:26 39.80064 3.53044 16539 ft 387 kts 85°
2026-05-07 18:26 39.80398 3.56544 17150 ft 392 kts 85°
2026-05-07 18:26 39.80732 3.60070 17781 ft 396 kts 85°
2026-05-07 18:27 39.80955 3.62437 18193 ft 399 kts 85°
2026-05-07 18:27 39.81292 3.66036 18712 ft 403 kts 85°
2026-05-07 18:27 39.81633 3.69687 19189 ft 409 kts 85°
2026-05-07 18:27 39.81978 3.73396 19666 ft 415 kts 85°
2026-05-07 18:28 39.82325 3.77138 20131 ft 420 kts 85°
2026-05-07 18:28 39.82677 3.80944 20611 ft 425 kts 85°
2026-05-07 18:28 39.83032 3.84800 20931 ft 434 kts 85°
2026-05-07 18:28 39.83393 3.88730 21413 ft 438 kts 85°
2026-05-07 18:29 39.83750 3.92627 21931 ft 441 kts 85°
2026-05-07 18:29 39.84113 3.96613 22403 ft 445 kts 85°
2026-05-07 18:29 39.84479 4.00639 22846 ft 450 kts 85°
2026-05-07 18:29 39.84846 4.04699 23297 ft 454 kts 85°
2026-05-07 18:30 39.85215 4.08802 23705 ft 458 kts 85°
2026-05-07 18:30 39.85588 4.12945 24100 ft 461 kts 85°
2026-05-07 18:30 39.85958 4.17087 24518 ft 463 kts 85°
2026-05-07 18:30 39.86440 4.21258 24888 ft 468 kts 77°
2026-05-07 18:31 39.87728 4.25106 25254 ft 475 kts 60°
2026-05-07 18:31 39.89460 4.28780 25676 ft 476 kts 60°
2026-05-07 18:31 39.91209 4.32527 26000 ft 480 kts 60°
2026-05-07 18:31 39.92909 4.36234 26301 ft 484 kts 61°
2026-05-07 18:32 39.94629 4.40037 26641 ft 487 kts 61°
2026-05-07 18:32 39.96344 4.43866 27009 ft 489 kts 62°
2026-05-07 18:32 39.98055 4.47705 27345 ft 492 kts 62°
2026-05-07 18:32 39.99782 4.51586 27647 ft 495 kts 62°
2026-05-07 18:33 40.01516 4.55484 27937 ft 498 kts 62°
2026-05-07 18:33 40.03262 4.59409 28227 ft 501 kts 62°
2026-05-07 18:33 40.05006 4.63329 28639 ft 501 kts 62°
2026-05-07 18:33 40.06779 4.67258 28942 ft 504 kts 59°
2026-05-07 18:34 40.08852 4.70972 29229 ft 508 kts 53°
2026-05-07 18:34 40.11085 4.74484 29623 ft 508 kts 51°
2026-05-07 18:34 40.13428 4.78002 30067 ft 508 kts 50°
2026-05-07 18:34 40.15722 4.81427 30435 ft 507 kts 51°
2026-05-07 18:35 40.18034 4.84918 30710 ft 508 kts 51°
2026-05-07 18:35 40.20334 4.88450 30995 ft 509 kts 52°
2026-05-07 18:35 40.22619 4.92010 31338 ft 509 kts 52°
2026-05-07 18:35 40.24889 4.95584 31673 ft 508 kts 51°
2026-05-07 18:36 40.27113 4.99105 32020 ft 507 kts 52°
2026-05-07 18:36 40.29361 5.02675 32349 ft 508 kts 52°
2026-05-07 18:36 40.31610 5.06250 32644 ft 508 kts 52°
2026-05-07 18:36 40.33860 5.09827 32956 ft 508 kts 52°
2026-05-07 18:37 40.36112 5.13410 33289 ft 508 kts 52°
2026-05-07 18:37 40.38360 5.16986 33628 ft 508 kts 52°
2026-05-07 18:37 40.40610 5.20570 33917 ft 508 kts 52°
2026-05-07 18:37 40.42854 5.24147 34184 ft 508 kts 52°
2026-05-07 18:38 40.45100 5.27731 34438 ft 509 kts 52°
2026-05-07 18:38 40.47360 5.31341 34665 ft 509 kts 52°
2026-05-07 18:38 40.49604 5.34931 34891 ft 509 kts 52°
2026-05-07 18:38 40.51817 5.38476 35200 ft 507 kts 52°
2026-05-07 18:39 40.54060 5.42072 35476 ft 507 kts 52°
2026-05-07 18:39 40.56292 5.45655 35684 ft 508 kts 52°
2026-05-07 18:39 40.58533 5.49258 35873 ft 509 kts 52°
2026-05-07 18:40 40.63045 5.56524 35947 ft 514 kts 52°
2026-05-07 18:40 40.67558 5.63807 35943 ft 510 kts 52°
2026-05-07 18:41 40.72017 5.71019 35949 ft 506 kts 52°
2026-05-07 18:41 40.76440 5.78188 36129 ft 503 kts 51°
2026-05-07 18:42 40.80904 5.85445 36010 ft 513 kts 52°
2026-05-07 18:42 40.85393 5.92761 35955 ft 512 kts 52°
2026-05-07 18:43 40.89845 6.00032 35950 ft 510 kts 52°
2026-05-07 18:43 40.94300 6.07324 35951 ft 508 kts 52°
2026-05-07 18:44 40.98741 6.14611 35962 ft 507 kts 52°
2026-05-07 18:44 41.03163 6.21885 35955 ft 507 kts 52°
2026-05-07 18:45 41.07579 6.29167 35958 ft 507 kts 52°
2026-05-07 18:45 41.11971 6.36426 35957 ft 508 kts 52°
2026-05-07 18:46 41.16398 6.43760 35957 ft 509 kts 52°
2026-05-07 18:46 41.20810 6.51088 35955 ft 510 kts 52°
2026-05-07 18:47 41.25260 6.58482 35966 ft 511 kts 51°
2026-05-07 18:47 41.29787 6.65791 35964 ft 513 kts 51°
2026-05-07 18:48 41.34364 6.73100 35962 ft 514 kts 51°
2026-05-07 18:48 41.38929 6.80430 35969 ft 515 kts 51°
2026-05-07 18:49 41.43460 6.87753 35950 ft 516 kts 51°
2026-05-07 18:49 41.48019 6.95147 35964 ft 516 kts 51°
2026-05-07 18:50 41.52581 7.02565 35965 ft 516 kts 51°
2026-05-07 18:50 41.57129 7.09974 35981 ft 516 kts 51°
2026-05-07 18:51 41.61681 7.17410 35971 ft 517 kts 51°
2026-05-07 18:51 41.66200 7.24809 35965 ft 516 kts 51°
2026-05-07 18:52 41.70740 7.32260 35967 ft 516 kts 51°
2026-05-07 18:52 41.75266 7.39707 35978 ft 515 kts 51°
2026-05-07 18:53 41.79791 7.47172 35967 ft 515 kts 51°
2026-05-07 18:53 41.84298 7.54624 35967 ft 515 kts 51°
2026-05-07 18:54 41.88804 7.62094 35958 ft 514 kts 51°
2026-05-07 18:54 41.93288 7.69546 35971 ft 513 kts 51°
2026-05-07 18:55 41.97777 7.77025 35975 ft 514 kts 51°
2026-05-07 18:55 42.02232 7.84465 35973 ft 514 kts 51°
2026-05-07 18:56 42.06714 7.91971 35974 ft 514 kts 51°
2026-05-07 18:56 42.11205 7.99508 35962 ft 515 kts 51°
2026-05-07 18:57 42.15684 8.07047 35975 ft 515 kts 51°
2026-05-07 18:57 42.20134 8.14553 35977 ft 516 kts 51°
2026-05-07 18:58 42.24607 8.22119 35978 ft 516 kts 51°
2026-05-07 18:58 42.29086 8.29710 35978 ft 517 kts 50°
2026-05-07 18:59 42.34316 8.36291 35987 ft 512 kts 31°
2026-05-07 18:59 42.40565 8.40685 35994 ft 503 kts 17°
2026-05-07 19:00 42.47080 8.44172 35984 ft 504 kts 16°
2026-05-07 19:00 42.53605 8.47701 35990 ft 505 kts 17°
2026-05-07 19:01 42.60074 8.51290 35996 ft 506 kts 17°
2026-05-07 19:01 42.66593 8.54941 35990 ft 507 kts 17°
2026-05-07 19:02 42.73119 8.58601 36004 ft 507 kts 17°
2026-05-07 19:02 42.79655 8.62269 35990 ft 507 kts 17°
2026-05-07 19:03 42.86144 8.65920 35988 ft 507 kts 17°
2026-05-07 19:03 42.92658 8.69590 36003 ft 506 kts 17°
2026-05-07 19:04 42.99168 8.73261 35984 ft 506 kts 17°
2026-05-07 19:04 43.05669 8.76935 35987 ft 505 kts 17°
2026-05-07 19:05 43.12142 8.80602 35996 ft 503 kts 17°
2026-05-07 19:05 43.18619 8.84281 35990 ft 503 kts 17°
2026-05-07 19:06 43.25085 8.87963 35997 ft 502 kts 17°
2026-05-07 19:06 43.34722 8.93463 36000 ft 500 kts 16°
2026-05-07 19:07 43.41335 8.95821 35994 ft 484 kts 359°
2026-05-07 19:07 43.47969 8.95912 36000 ft 475 kts 351°
2026-05-07 19:08 43.54562 8.95791 35993 ft 477 kts 352°
2026-05-07 19:08 43.61225 8.95976 35983 ft 484 kts
2026-05-07 19:09 43.67806 8.98473 36008 ft 500 kts 20°
2026-05-07 19:09 43.74011 9.02920 35997 ft 503 kts 23°
2026-05-07 19:10 43.80166 9.07545 35989 ft 503 kts 23°
2026-05-07 19:10 43.86326 9.12108 36015 ft 501 kts 22°
2026-05-07 19:11 43.92449 9.16582 36001 ft 501 kts 22°
2026-05-07 19:11 43.98611 9.21071 35994 ft 500 kts 22°
2026-05-07 19:12 44.04767 9.25568 36017 ft 499 kts 22°
2026-05-07 19:12 44.10913 9.30073 35997 ft 499 kts 22°
2026-05-07 19:13 44.17040 9.34576 35990 ft 498 kts 22°
2026-05-07 19:13 44.23182 9.39101 36020 ft 497 kts 22°
2026-05-07 19:14 44.29265 9.43593 36017 ft 497 kts 22°
2026-05-07 19:14 44.35385 9.48123 35987 ft 498 kts 22°
2026-05-07 19:15 44.40506 9.51927 35992 ft 497 kts 22°
2026-05-07 19:15 44.46624 9.56473 35990 ft 497 kts 22°
2026-05-07 19:16 44.52693 9.60995 35990 ft 497 kts 22°
2026-05-07 19:16 44.58792 9.65551 36003 ft 497 kts 22°
2026-05-07 19:17 44.64898 9.70125 35985 ft 497 kts 22°
2026-05-07 19:17 44.70994 9.74700 35955 ft 496 kts 22°
2026-05-07 19:18 44.77068 9.79271 35939 ft 495 kts 22°
2026-05-07 19:18 44.83131 9.83848 35942 ft 493 kts 23°
2026-05-07 19:19 44.89169 9.88412 35947 ft 492 kts 23°
2026-05-07 19:19 44.95198 9.92979 35944 ft 491 kts 23°
2026-05-07 19:20 45.01215 9.97550 35953 ft 491 kts 23°
2026-05-07 19:20 45.07180 10.02093 35965 ft 490 kts 23°
2026-05-07 19:21 45.13184 10.06677 35963 ft 490 kts 23°
2026-05-07 19:21 45.19189 10.11271 35961 ft 490 kts 23°
2026-05-07 19:22 45.25188 10.15872 35968 ft 490 kts 23°
2026-05-07 19:22 45.31185 10.20484 35967 ft 490 kts 23°
2026-05-07 19:23 45.37147 10.25079 35976 ft 490 kts 24°
2026-05-07 19:23 45.43152 10.29719 35970 ft 490 kts 24°
2026-05-07 19:24 45.49152 10.34367 35995 ft 490 kts 24°
2026-05-07 19:24 45.55145 10.39021 35993 ft 490 kts 24°
2026-05-07 19:25 45.61125 10.43676 35986 ft 489 kts 24°
2026-05-07 19:25 45.67107 10.48344 35998 ft 489 kts 24°
2026-05-07 19:26 45.73064 10.53002 36021 ft 488 kts 24°
2026-05-07 19:26 45.79022 10.57675 36022 ft 488 kts 24°
2026-05-07 19:27 45.84964 10.62347 36035 ft 485 kts 24°
2026-05-07 19:27 45.90874 10.67004 36037 ft 485 kts 24°
2026-05-07 19:28 45.96908 10.71067 36060 ft 478 kts 15°
2026-05-07 19:28 46.03185 10.74225 36066 ft 478 kts 14°
2026-05-07 19:29 46.09466 10.77403 36075 ft 479 kts 14°
2026-05-07 19:29 46.15747 10.80665 36090 ft 481 kts 14°
2026-05-07 19:30 46.22051 10.83929 36106 ft 480 kts 14°
2026-05-07 19:30 46.28303 10.87240 36106 ft 482 kts 15°
2026-05-07 19:31 46.34613 10.90608 36095 ft 483 kts 15°
2026-05-07 19:31 46.40921 10.93950 36062 ft 482 kts 15°
2026-05-07 19:32 46.47229 10.97293 36074 ft 483 kts 15°
2026-05-07 19:32 46.53536 11.00644 36079 ft 482 kts 15°
2026-05-07 19:33 46.59835 11.03998 35749 ft 485 kts 14°
2026-05-07 19:33 46.63033 11.05563 35132 ft 481 kts
2026-05-07 19:33 46.66277 11.06494 34589 ft 471 kts
2026-05-07 19:34 46.69515 11.06701 33962 ft 463 kts 353°
2026-05-07 19:34 46.72692 11.06619 33196 ft 461 kts 352°
2026-05-07 19:34 46.75932 11.06526 32478 ft 459 kts 353°
2026-05-07 19:34 46.79095 11.06487 31765 ft 459 kts 353°
2026-05-07 19:35 46.82302 11.06479 30985 ft 460 kts 353°
2026-05-07 19:35 46.85464 11.06077 30223 ft 453 kts 344°
2026-05-07 19:35 46.88495 11.04959 29374 ft 447 kts 337°
2026-05-07 19:35 46.91370 11.03297 28130 ft 442 kts 329°
2026-05-07 19:36 46.94022 11.01187 27539 ft 426 kts 327°
2026-05-07 19:36 46.96585 10.99092 26927 ft 414 kts 327°
2026-05-07 19:36 46.99045 10.97074 26364 ft 408 kts 327°
2026-05-07 19:36 47.01518 10.95048 25787 ft 406 kts 328°
2026-05-07 19:37 47.03996 10.93023 25178 ft 411 kts 328°
2026-05-07 19:37 47.06542 10.90944 24618 ft 427 kts 328°
2026-05-07 19:37 47.09153 10.88818 23978 ft 428 kts 329°
2026-05-07 19:37 47.11759 10.86706 23321 ft 424 kts 329°
2026-05-07 19:38 47.14321 10.84629 22591 ft 415 kts 329°
2026-05-07 19:38 47.16837 10.82588 21532 ft 410 kts 329°
2026-05-07 19:38 47.19326 10.80564 20410 ft 408 kts 329°
2026-05-07 19:38 47.21772 10.78571 19387 ft 404 kts 329°
2026-05-07 19:39 47.24224 10.76571 18444 ft 400 kts 329°
2026-05-07 19:39 47.26641 10.74598 17395 ft 395 kts 329°
2026-05-07 19:39 47.29027 10.72649 16388 ft 389 kts 329°
2026-05-07 19:39 47.31382 10.70726 15768 ft 385 kts 329°
2026-05-07 19:40 47.33722 10.68810 15153 ft 384 kts 329°
2026-05-07 19:40 47.36052 10.66898 14590 ft 381 kts 328°
2026-05-07 19:40 47.38357 10.65004 14027 ft 377 kts 328°
2026-05-07 19:40 47.40641 10.63128 13451 ft 374 kts 328°
2026-05-07 19:41 47.42903 10.61268 12862 ft 370 kts 329°
2026-05-07 19:41 47.45139 10.59427 12329 ft 366 kts 329°
2026-05-07 19:41 47.47354 10.57601 11797 ft 362 kts 329°
2026-05-07 19:41 47.49550 10.55789 11254 ft 360 kts 329°
2026-05-07 19:42 47.51712 10.54004 10996 ft 349 kts 329°
2026-05-07 19:42 47.53771 10.52304 10848 ft 337 kts 328°
2026-05-07 19:42 47.55785 10.50641 10700 ft 325 kts 328°
2026-05-07 19:42 47.57726 10.49038 10587 ft 314 kts 328°
2026-05-07 19:43 47.59600 10.47486 10462 ft 303 kts 327°
2026-05-07 19:43 47.61417 10.45978 10327 ft 294 kts 327°
2026-05-07 19:43 47.63175 10.44518 10200 ft 286 kts 327°
2026-05-07 19:43 47.64889 10.43094 10089 ft 277 kts 327°
2026-05-07 19:44 47.66547 10.41714 10058 ft 271 kts 327°
2026-05-07 19:44 47.68176 10.40359 10044 ft 264 kts 327°
2026-05-07 19:44 47.69743 10.39056 10036 ft 252 kts 327°
2026-05-07 19:44 47.71238 10.37813 10038 ft 240 kts 327°
2026-05-07 19:45 47.72666 10.36624 10037 ft 229 kts 327°
2026-05-07 19:45 47.74024 10.35454 10044 ft 222 kts 319°
2026-05-07 19:45 47.74952 10.33689 10083 ft 220 kts 292°
2026-05-07 19:45 47.75557 10.31561 10072 ft 226 kts 289°
2026-05-07 19:46 47.76118 10.29385 10023 ft 225 kts 288°
2026-05-07 19:46 47.76690 10.27147 9372 ft 239 kts 289°
2026-05-07 19:46 47.77305 10.24751 8532 ft 255 kts 289°
2026-05-07 19:46 47.77948 10.22263 7934 ft 259 kts 289°
2026-05-07 19:47 47.78601 10.19757 7471 ft 259 kts 290°
2026-05-07 19:47 47.79243 10.17299 7022 ft 258 kts 290°
2026-05-07 19:47 47.79890 10.14819 6582 ft 259 kts 290°
2026-05-07 19:47 47.80542 10.12320 6467 ft 250 kts 290°
2026-05-07 19:48 47.81182 10.10007 6225 ft 242 kts 298°
2026-05-07 19:48 47.82345 10.08232 6012 ft 240 kts 324°
2026-05-07 19:48 47.83734 10.06953 5835 ft 236 kts 329°
2026-05-07 19:48 47.85135 10.05741 5709 ft 231 kts 329°
2026-05-07 19:49 47.86528 10.04532 5450 ft 232 kts 329°
2026-05-07 19:49 47.87943 10.03381 5190 ft 232 kts 340°
2026-05-07 19:49 47.89485 10.03357 5114 ft 220 kts 22°
2026-05-07 19:49 47.90689 10.04684 4948 ft 214 kts 45°
2026-05-07 19:50 47.91688 10.06324 4651 ft 211 kts 52°
2026-05-07 19:50 47.92561 10.08061 4376 ft 207 kts 56°
2026-05-07 19:50 47.93309 10.09818 4088 ft 194 kts 59°
2026-05-07 19:50 47.93964 10.11482 3848 ft 178 kts 60°
2026-05-07 19:51 47.94557 10.12992 3626 ft 163 kts 60°
2026-05-07 19:51 47.95104 10.14381 3424 ft 149 kts 59°
2026-05-07 19:51 47.95614 10.15678 3170 ft 141 kts 60°
2026-05-07 19:51 47.96092 10.16950 2995 ft 141 kts 60°
2026-05-07 19:52 47.96597 10.18210 2799 ft 143 kts 58°
2026-05-07 19:52 47.97098 10.19500 2579 ft 141 kts 59°
2026-05-07 19:52 47.97600 10.20731 2385 ft 138 kts 58°
2026-05-07 19:52 47.98082 10.21948 2215 ft 135 kts 58°
2026-05-07 19:53 47.98567 10.23160 2085 ft 134 kts 59°
2026-05-07 19:53 47.98982 10.24199 2069 ft 96 kts 59°
2026-05-07 19:53 47.99151 10.24619 2066 ft 21 kts 59°
2026-05-07 19:53 47.99191 10.24719 2066 ft 8 kts 59°
2026-05-07 19:54 47.99219 10.24778 2066 ft 6 kts 65°
2026-05-07 19:54 47.99212 10.24788 2066 ft 1 kts 177°
2026-05-07 19:54 47.99210 10.24779 2066 ft 1 kts 242°
2026-05-07 19:54 47.99206 10.24769 2066 ft 1 kts 242°
2026-05-07 19:55 47.99202 10.24757 2066 ft 3 kts 242°
2026-05-07 19:55 47.99183 10.24705 2066 ft 9 kts 240°
2026-05-07 19:55 47.99139 10.24595 2066 ft 15 kts 239°
2026-05-07 19:55 47.99078 10.24442 2067 ft 20 kts 238°
2026-05-07 19:56 47.98999 10.24249 2068 ft 23 kts 239°
2026-05-07 19:56 47.98920 10.24048 2071 ft 22 kts 240°
2026-05-07 19:56 47.98845 10.23857 2075 ft 20 kts 239°
2026-05-07 19:56 47.98863 10.23749 2073 ft 12 kts 325°
2026-05-07 19:57 47.98913 10.23656 2074 ft 13 kts 273°
2026-05-07 19:57 47.98886 10.23526 2075 ft 13 kts 250°
2026-05-07 19:57 47.98866 10.23443 2080 ft 12 kts 250°
2026-05-07 19:57 47.98840 10.23334 2080 ft 10 kts 250°
2026-05-07 19:58 47.98821 10.23241 2079 ft 7 kts 273°
2026-05-07 19:58 47.98847 10.23220 2079 ft 4 kts 353°
2026-05-07 19:58 47.98864 10.23233 2077 ft 0 kts 49°
2026-05-07 19:58 47.98865 10.23236 2077 ft 1 kts 46°
2026-05-07 19:59 47.98867 10.23239 2077 ft 0 kts 47°